This demonstration page uses our WeatherBlox Daily Observations layout. Learn more.

Hourly Observations for March 24, 2017

Temp ( °F °C ) Dew Point ( °F °C ) Humidity (%) Winds ( mph kmh ) Pressure ( in mb ) Visibility ( mi km ) Precip ( " mm )
12:15 am 00:15 Partly Cloudy with Nearby Thunderstorms 59 15 52 10.9 77 77 SSW 20 31 29.59 1002 10 16.0934 0 0
12:35 am 00:35 Clear 60 15.7 50 9.8 68 68 SW 15 24 29.59 1002 10 16.0934 0 0
12:55 am 00:55 Mostly Cloudy 60 15.5 50 10.1 70 70 S 20 31 29.62 1003 10 16.0934 0 0
1:15 am 01:15 Cloudy 59 14.8 51 10.5 76 76 NE 13 20 29.65 1004 10 16.0934 0 0
1:35 am 01:35 Cloudy with Light Rain 57 14 52 10.9 82 82 NE 30 48 29.65 1004 10 16.0934 0 0
1:55 am 01:55 Cloudy with Thunderstorms 55 12.5 52 11.1 91 91 NNE 16 26 29.74 1007 7 11.26538 0.01 0.254
2:15 am 02:15 Cloudy 54 12.2 52 11.2 94 94 NE 14 22 29.74 1007 2 3.21868 0.34 8.636
2:35 am 02:35 Cloudy with Rain 54 12.2 52 11.1 93 93 NNE 14 22 29.74 1007 4 6.43736 0.53 13.462
2:55 am 02:55 Cloudy with Light Rain 53 11.9 52 10.9 94 94 NE 16 26 29.74 1007 10 16.0934 0.58 14.732
3:15 am 03:15 Cloudy 53 11.5 51 10.5 94 94 NE 14 22 29.74 1007 10 16.0934 0 0
3:35 am 03:35 Cloudy with Light Drizzle 53 11.5 51 10.5 94 94 NE 16 26 29.71 1006 10 16.0934 0 0
3:55 am 03:55 Mostly Cloudy 53 11.5 51 10.5 94 94 NE 20 31 29.68 1005 10 16.0934 0 0
4:15 am 04:15 Cloudy 53 11.8 51 10.6 92 92 NE 18 30 29.68 1005 10 16.0934 0 0
4:35 am 04:35 Mostly Cloudy 53 11.7 51 10.5 92 92 NE 18 30 29.68 1005 10 16.0934 0 0
4:55 am 04:55 Mostly Cloudy 53 11.6 51 10.6 94 94 NE 16 26 29.71 1006 10 16.0934 0 0
5:15 am 05:15 Cloudy 53 11.6 51 10.5 93 93 NE 18 30 29.71 1006 10 16.0934 0 0
5:35 am 05:35 Cloudy 53 11.5 51 10.5 94 94 NNE 18 30 29.71 1006 10 16.0934 0 0
5:55 am 05:55 Cloudy 53 11.6 51 10.5 93 93 NE 22 35 29.71 1006 10 16.0934 0 0
6:15 am 06:15 Cloudy 53 11.8 51 10.7 93 93 NE 22 35 29.74 1007 10 16.0934 0 0
6:35 am 06:35 Cloudy 53 11.8 51 10.7 93 93 NE 18 30 29.77 1008 10 16.0934 0 0
6:55 am 06:55 Cloudy with Rain 52 11.1 50 9.9 92 92 N 24 39 29.77 1008 5 8.0467 0.01 0.254
7:15 am 07:15 Cloudy with Light Rain 49 9.2 47 8.4 95 95 NNE 26 43 29.8 1009 4 6.43736 0.02 0.508
7:35 am 07:35 Cloudy with Mist and Fog 47 8.3 45 7.3 93 93 NNE 28 44 29.8 1009 5 8.0467 0.02 0.508
7:55 am 07:55 Cloudy 45 7.4 43 6.2 92 92 NNE 26 43 29.8 1009 7 11.26538 0.02 0.508
8:15 am 08:15 Cloudy 44 6.7 42 5.5 92 92 NNE 25 41 29.85 1011 7 11.26538 0 0
8:35 am 08:35 Cloudy 44 6.5 41 5.2 92 92 NNE 28 44 29.85 1011 7 11.26538 0 0
8:55 am 08:55 Cloudy 44 6.5 42 5.3 92 92 NNE 22 35 29.85 1011 7 11.26538 0 0
9:15 am 09:15 Cloudy 44 6.5 41 5.1 91 91 NNE 21 33 29.85 1011 7 11.26538 0 0
9:35 am 09:35 Cloudy 43 6.2 41 5.1 93 93 NNE 25 41 29.85 1011 7 11.26538 0 0
9:55 am 09:55 Cloudy 43 5.9 40 4.6 91 91 NNE 28 44 29.88 1012 7 11.26538 0 0
10:15 am 10:15 Cloudy 41 5.2 39 4 92 92 N 29 46 29.91 1013 10 16.0934 0 0
10:35 am 10:35 Cloudy 41 5.1 39 3.7 91 91 NNE 30 48 29.91 1013 10 16.0934 0 0
10:55 am 10:55 Cloudy 41 5 38 3.6 91 91 NNE 24 39 29.91 1013 10 16.0934 0 0
11:15 am 11:15 Cloudy 41 5 39 3.7 91 91 NNE 22 35 29.97 1015 10 16.0934 0 0
11:35 am 11:35 Cloudy 41 4.8 38 3.5 91 91 NNE 30 48 29.97 1015 10 16.0934 0 0
11:55 am 11:55 Cloudy 41 4.9 38 3.5 91 91 NNE 28 44 29.97 1015 10 16.0934 0 0
12:15 pm 12:15 Cloudy with Mist and Fog 40 4.6 38 3.4 92 92 NNE 23 37 29.97 1015 5 8.0467 0 0
12:35 pm 12:35 Cloudy with Mist and Fog 40 4.5 38 3.4 93 93 NNE 25 41 29.97 1015 2.5 4.02335 0 0
12:55 pm 12:55 Cloudy with Light Rain 40 4.5 38 3.3 92 92 NNE 28 44 30 1016 2.5 4.02335 0 0
1:15 pm 13:15 Cloudy with Mist and Fog 40 4.5 38 3.5 93 93 NNE 28 44 30 1016 3 4.82802 0 0
1:35 pm 13:35 Cloudy with Mist and Fog 40 4.5 38 3.6 94 94 NNE 23 37 30 1016 4 6.43736 0 0
1:55 pm 13:55 Cloudy with Mist and Fog 40 4.6 39 3.7 94 94 NNE 28 44 30 1016 5 8.0467 0 0
2:15 pm 14:15 Cloudy 40 4.7 39 3.7 93 93 NNE 21 33 30 1016 10 16.0934 0 0
2:35 pm 14:35 Cloudy 41 4.9 39 3.7 92 92 NNE 24 39 30 1016 10 16.0934 0 0
2:55 pm 14:55 Cloudy 41 5 39 3.8 92 92 N 18 30 30 1016 10 16.0934 0 0
3:15 pm 15:15 Cloudy 41 4.8 38 3.6 92 92 NNE 16 26 30.03 1017 10 16.0934 0 0
3:35 pm 15:35 Cloudy with Light Rain 40 4.5 38 3.2 91 91 N 18 30 30 1016 10 16.0934 0 0
3:55 pm 15:55 Cloudy with Light Drizzle 40 4.5 38 3.1 91 91 NNE 23 37 30.03 1017 10 16.0934 0 0
4:15 pm 16:15 Cloudy 40 4.5 38 3.2 91 91 NNE 22 35 30.03 1017 10 16.0934 0 0
4:35 pm 16:35 Cloudy 40 4.5 38 3.2 91 91 N 21 33 30.03 1017 10 16.0934 0 0
4:55 pm 16:55 Cloudy 40 4.5 38 3.2 91 91 N 20 31 30.03 1017 10 16.0934 0 0
5:15 pm 17:15 Cloudy 40 4.3 37 3 91 91 N 23 37 30.06 1018 7 11.26538 0 0
5:35 pm 17:35 Cloudy 40 4.3 37 3 91 91 N 21 33 30.06 1018 7 11.26538 0 0
5:55 pm 17:55 Cloudy 40 4.2 37 3 92 92 N 22 35 30.06 1018 10 16.0934 0 0
6:15 pm 18:15 Cloudy 40 4.3 38 3.1 92 92 N 21 33 30.06 1018 10 16.0934 0 0
6:35 pm 18:35 Cloudy 40 4.5 38 3.1 91 91 N 23 37 30.06 1018 10 16.0934 0 0
6:55 pm 18:55 Cloudy 40 4.5 38 3.1 91 91 N 21 33 30.06 1018 10 16.0934 0 0
7:15 pm 19:15 Cloudy 40 4.5 38 3.2 91 91 N 17 28 30.06 1018 10 16.0934 0 0
7:35 pm 19:35 Cloudy 40 4.5 38 3.1 91 91 NNE 22 35 30.06 1018 10 16.0934 0 0
7:55 pm 19:55 Cloudy 40 4.5 38 3.2 91 91 N 22 35 30.09 1019 7 11.26538 0 0
8:15 pm 20:15 Cloudy 40 4.5 38 3.2 91 91 N 21 33 30.06 1018 10 16.0934 0 0
8:35 pm 20:35 Cloudy 40 4.5 38 3.1 91 91 N 20 31 30.06 1018 10 16.0934 0 0
8:55 pm 20:55 Cloudy 40 4.5 37 3 90 90 NNE 21 33 30.09 1019 10 16.0934 0 0
9:15 pm 21:15 Cloudy 40 4.5 37 3 90 90 NNE 14 22 30.09 1019 10 16.0934 0 0
9:35 pm 21:35 Cloudy 40 4.5 38 3.2 91 91 NNE 17 28 30.12 1020 10 16.0934 0 0
9:55 pm 21:55 Cloudy 40 4.7 38 3.5 92 92 NNE 16 26 30.12 1020 10 16.0934 0 0
10:15 pm 22:15 Cloudy 41 4.8 38 3.5 91 91 NNE 16 26 30.12 1020 10 16.0934 0 0
10:35 pm 22:35 Cloudy 41 5 38 3.6 91 91 N 14 22 30.12 1020 10 16.0934 0 0
10:55 pm 22:55 Cloudy 41 5 39 3.7 91 91 N 16 26 30.12 1020 10 16.0934 0 0
11:15 pm 23:15 Cloudy 41 5 39 3.7 91 91 N 15 24 30.09 1019 10 16.0934 0 0
11:35 pm 23:35 Cloudy 41 5 39 3.7 91 91 N 16 26 30.09 1019 10 16.0934 0 0
11:55 pm 23:55 Cloudy 41 4.8 38 3.6 92 92 N 18 30 30.09 1019 10 16.0934 0 0

Powered by AerisWeather